Terminal Aerodrome Forecast
Issued by NWS Portland, OR

Home | Current Version | Previous Version | Text Only | Print | Product List | Glossary On
Versions: 1 2 3 4 5 6 7 8 9 10 11 12 13 14 15 16 17 18 19 20 21 22 23 24
000
FTUS46 KPQR 192355
TAFSLE
TAF
KSLE 192355Z 2000/2024 36004KT P6SM SKC
     FM201900 36009KT P6SM SKC=

USA.gov is the U.S. government's official web portal to all federal, state and local government web resources and services.